Wind_Gust
16 16 16 16 16 17 16 16 17 17 18 19 20 20 19 19 20 19 17 18 19 19 19 19 19 21 22 23 24 25 22 20 23 20 15 30 14 22 27 24 19 17 14 5 7 5 7 7 9 9 10 7 11 13 17 14 14 9 15 13 12 13 18 17 16 9 7 16 14 12 6 5 11 14 20 28 29 27 24 27 28 28 25 30 30 28 26 26
16 16 16 17 17 17 17 17 17 18 18 19 19 19 19 20 19 19 18 18 18 19 19 19 20 20 22 23 24 23 21 19 22 21 32 24 16 22 20 21 20 17 13 6 10 10 9 11 10 10 12 10 8 13 7 13 12 13 11 12 20 14 27 9 15 12 13 13 14 14 6 6 7 14 15 30 24 28 28 24 27 29 27 26 26 27 27 24
16 17 17 17 17 17 17 17 18 18 19 19 19 19 19 19 19 18 18 18 18 18 18 20 20 20 21 23 23 21 21 22 18 21 32 25 32 30 22 21 18 16 18 7 9 13 14 12 14 14 14 12 11 14 13 17 14 11 9 14 22 14 17 18 14 18 17 15 23 14 13 7 7 12 20 29 23 31 32 31 23 30 26 25 25 26 24 22
17 17 17 17 17 18 18 18 19 19 20 20 20 19 19 19 19 18 18 18 18 18 18 19 20 20 21 22 22 21 17 18 17 19 10 10 30 33 29 24 19 19 14 9 8 12 13 13 10 18 15 14 12 16 16 14 17 11 15 19 15 13 19 22 19 17 17 15 16 10 11 14 13 11 16 30 23 25 25 31 34 30 30 28 26 25 23 22
17 17 17 17 18 18 18 19 19 19 20 21 19 20 19 19 18 18 18 18 18 18 18 19 19 21 21 22 21 16 18 9 13 4 5 9 16 24 27 26 18 15 15 5 5 12 15 16 15 14 15 16 15 8 17 12 19 8 16 16 17 16 14 14 16 22 14 23 7 9 12 10 13 13 23 20 26 22 28 23 33 33 32 33 28 23 22 21
17 17 17 18 18 19 19 19 19 19 20 20 20 19 19 19 18 17 18 18 18 17 18 19 19 21 21 22 21 13 7 14 9 11 10 13 12 18 25 23 17 11 7 6 9 5 8 12 13 15 18 11 9 16 11 17 14 20 14 11 18 17 18 17 19 18 14 16 7 6 7 8 12 9 18 24 24 18 29 25 27 29 28 27 26 25 21 21
16 17 17 18 19 19 19 19 20 20 20 20 20 19 18 18 17 17 18 18 17 17 18 19 19 21 20 19 21 13 12 28 14 10 19 18 17 18 14 11 12 9 7 9 11 12 9 14 14 12 11 14 14 19 16 15 13 16 23 9 15 13 17 17 18 13 10 8 6 6 12 12 11 13 20 24 22 26 24 25 25 24 23 26 27 20 22 21
16 16 17 18 18 19 20 20 20 20 20 20 20 19 18 18 17 17 17 18 17 17 18 19 18 19 18 19 17 8 14 23 24 10 16 15 14 14 17 12 11 8 8 14 12 15 12 13 15 13 14 13 9 17 13 13 12 18 24 15 15 9 11 16 15 7 14 18 9 11 10 14 12 13 16 22 24 25 25 26 26 24 22 21 23 22 19 19
16 16 17 18 18 19 19 20 20 20 20 20 19 19 19 18 17 16 17 17 18 17 18 18 18 17 15 14 12 14 24 27 19 13 19 19 16 10 14 13 8 12 13 16 13 13 9 11 15 13 10 12 12 14 14 12 14 16 18 17 12 16 14 10 8 6 12 9 8 11 10 16 14 15 22 24 22 26 25 25 25 23 22 20 17 18 20 22
16 17 17 18 18 19 20 20 21 21 20 20 20 19 18 17 17 16 16 17 17 17 17 17 17 15 14 14 12 18 20 21 20 17 16 19 21 15 12 11 14 11 14 14 12 15 15 15 13 8 14 14 8 15 12 12 15 14 20 16 16 17 15 7 15 8 10 9 7 13 9 15 13 15 10 16 25 25 26 26 21 21 21 18 20 22 21 23
16 17 18 18 19 20 20 20 21 21 20 20 19 18 18 17 17 17 16 17 17 17 17 17 15 14 16 12 16 27 14 17 16 15 19 19 22 16 15 13 17 17 15 13 16 15 15 16 15 13 13 17 6 12 15 15 9 14 12 15 17 14 17 14 9 8 7 10 10 12 9 15 14 14 22 17 24 27 29 25 23 21 21 22 22 20 19 19
17 17 18 19 19 20 20 20 20 21 20 20 18 18 18 18 18 17 17 17 18 17 17 16 16 13 17 19 24 35 16 21 22 22 24 24 22 20 19 16 19 16 17 16 15 14 16 17 16 17 16 7 23 12 20 14 17 13 13 15 13 19 23 10 11 8 9 12 8 11 9 11 11 15 23 22 27 29 30 28 24 24 24 22 21 20 19 19
16 17 17 19 19 19 20 20 20 20 20 20 19 19 18 18 18 19 19 18 16 18 17 17 14 16 18 26 29 36 36 34 31 27 30 23 23 24 24 18 21 18 19 16 14 15 14 17 16 16 20 15 11 21 10 10 13 11 10 10 9 8 16 17 10 7 8 8 11 12 14 14 12 15 21 24 27 28 28 28 27 26 25 23 19 18 17 15
16 16 17 18 19 19 19 20 20 20 20 20 19 19 19 18 20 20 20 20 20 19 17 17 13 16 18 27 27 25 22 22 19 21 24 22 22 27 23 24 19 21 16 16 15 11 16 16 15 17 17 16 18 8 22 19 8 13 9 9 12 8 12 9 15 6 10 11 14 10 13 14 11 18 25 27 26 27 27 26 25 23 23 22 21 19 19 16
15 16 17 18 18 19 20 20 20 20 20 20 20 19 19 20 20 21 21 20 19 18 18 14 11 13 17 27 20 35 40 33 21 25 29 20 22 23 20 18 20 20 18 16 16 13 12 13 15 20 20 12 17 19 21 13 11 12 13 14 7 12 11 11 18 12 17 12 15 12 13 16 13 18 25 24 23 25 27 26 25 22 20 20 20 22 21 20
17 16 17 17 18 18 19 20 20 20 19 20 20 20 20 23 22 21 21 19 19 19 15 14 15 14 16 30 25 15 18 16 20 27 26 19 21 21 22 17 17 18 15 14 17 13 13 11 21 15 16 14 18 14 9 14 14 13 14 8 10 11 11 10 15 14 16 12 14 18 16 9 11 21 26 24 24 30 29 27 24 24 23 22 22 21 20 21
19 16 16 17 18 18 18 19 19 19 20 19 20 21 22 24 25 24 21 19 15 14 12 13 9 16 13 16 16 20 29 25 17 17 13 20 21 22 17 14 12 12 17 8 13 13 10 18 11 17 17 19 13 12 13 14 11 15 11 15 8 9 12 18 9 18 18 14 11 18 21 9 11 21 30 24 30 29 30 26 24 23 22 22 22 20 20 19
17 17 17 16 17 18 18 19 18 19 18 19 19 18 27 24 26 21 13 12 13 15 15 18 13 13 34 27 22 24 17 15 18 19 13 14 21 19 17 18 9 12 13 16 14 17 16 18 14 14 10 19 17 18 24 24 18 11 8 11 11 6 9 16 17 17 17 20 11 16 19 16 11 15 25 28 31 30 28 28 25 24 24 23 21 21 19 18
19 17 17 18 16 17 17 19 19 19 18 18 20 22 27 26 21 9 15 13 9 7 7 19 20 18 13 15 35 22 16 16 15 17 20 16 16 17 17 17 16 13 21 20 19 18 17 14 9 12 28 26 26 19 17 5 11 14 10 14 9 11 13 22 16 18 23 19 18 13 23 24 10 12 14 26 30 30 25 22 24 22 23 23 22 21 19 18
19 18 19 18 17 16 17 16 18 18 18 14 16 21 18 7 4 8 12 14 20 18 14 13 25 16 26 30 12 14 21 13 18 21 17 18 19 18 20 19 19 20 20 25 16 25 12 21 27 33 23 16 14 17 11 13 16 14 12 13 19 19 19 20 14 24 24 20 21 17 16 14 8 14 20 20 27 29 26 22 22 20 22 22 21 20 19 18
20 20 18 17 16 17 17 16 16 17 17 14 16 18 14 10 10 9 10 19 25 25 27 27 24 27 33 26 25 21 25 18 20 18 27 19 18 19 27 21 22 21 22 15 17 17 19 20 31 18 12 15 16 13 10 12 20 22 14 13 19 22 22 24 16 28 27 20 17 14 13 12 13 10 26 23 29 29 28 23 23 22 20 21 23 21 21 18
19 19 18 17 17 17 18 17 16 17 17 13 16 19 19 25 19 19 22 25 18 26 28 29 23 25 32 35 33 20 21 32 27 23 21 24 26 31 22 25 23 22 14 17 18 20 31 39 22 10 12 14 11 15 14 17 18 20 18 11 7 20 22 22 15 32 26 21 19 18 15 13 12 18 24 25 25 27 28 28 28 28 23 24 22 23 22 20
19 19 19 18 17 16 16 17 16 16 15 15 19 20 28 25 18 17 16 25 29 26 28 28 28 25 38 37 31 13 22 25 26 23 30 27 24 29 22 29 22 18 21 21 28 22 26 29 13 16 16 18 14 15 20 20 21 18 14 14 20 10 18 19 9 33 24 31 19 20 17 10 16 16 20 19 29 19 19 19 18 23 28 24 23 23 25 23
18 18 17 17 17 15 16 15 14 14 17 19 21 27 24 16 16 17 17 17 24 25 28 29 26 26 34 36 22 23 23 25 20 24 26 37 28 24 24 26 19 22 24 26 25 23 22 9 15 16 16 21 19 15 21 21 23 19 17 15 15 20 20 20 17 34 25 24 12 15 12 11 11 22 25 21 28 26 23 26 25 21 20 22 22 21 20 21
19 18 17 17 15 15 12 16 12 14 11 14 25 28 28 26 26 17 17 21 19 35 20 28 26 24 40 25 21 22 17 26 25 24 25 32 27 31 26 27 25 24 21 24 23 23 18 13 21 19 17 19 21 19 24 22 21 23 18 18 19 20 21 12 19 31 23 25 10 23 16 12 8 20 26 23 29 26 21 27 21 20 22 22 22 21 20 19
19 18 16 17 14 10 11 13 13 11 13 20 21 25 22 25 20 16 15 12 23 25 16 21 30 36 34 26 20 26 20 32 21 27 24 33 24 30 27 26 35 30 25 22 29 30 17 15 24 26 22 22 24 24 17 20 23 20 27 18 24 23 25 17 14 27 24 29 20 19 24 18 8 19 20 25 28 24 20 24 19 19 18 19 19 19 19 18
19 17 17 16 15 6 8 14 9 16 16 20 13 18 21 23 12 21 15 13 17 19 20 16 27 24 34 22 26 19 18 27 22 21 21 34 27 26 26 17 27 18 25 19 26 35 24 22 24 24 24 28 27 30 26 25 22 35 22 13 17 21 23 24 17 17 21 14 11 12 26 28 22 16 23 28 29 25 23 19 18 17 17 18 18 16 15 17
18 17 16 17 16 8 10 15 16 17 19 22 24 25 21 22 8 12 7 12 21 16 20 18 20 19 21 23 21 29 14 12 25 22 18 28 20 31 28 21 23 22 22 25 29 18 19 21 25 27 25 29 32 29 16 20 33 30 16 15 19 20 24 20 10 16 21 14 10 15 15 27 21 20 21 32 30 26 26 24 21 20 18 18 18 18 18 16
17 17 16 16 16 13 11 12 13 19 17 19 22 25 24 16 13 12 11 12 14 17 19 19 15 18 10 23 26 19 26 12 16 11 16 25 26 19 34 20 17 20 19 23 19 16 27 22 21 23 28 31 22 18 21 22 29 17 16 16 21 17 17 11 17 18 25 21 13 17 23 27 14 23 20 19 32 32 31 24 21 21 20 19 18 18 18 16
17 16 16 16 11 9 12 13 19 22 21 21 23 23 20 11 7 8 11 17 8 9 12 14 20 17 16 26 22 20 22 20 16 17 20 24 24 21 17 12 15 20 26 22 23 14 18 20 16 29 33 27 17 16 26 22 17 7 20 21 20 21 11 8 15 16 23 21 20 20 22 25 24 29 29 29 36 33 27 20 18 20 20 20 17 18 18 16
17 17 15 14 10 10 12 17 17 14 14 18 21 21 11 9 14 14 13 21 14 9 8 13 17 19 21 23 21 22 21 21 20 15 25 20 25 27 15 22 22 15 19 21 24 23 20 25 32 28 21 25 16 23 22 24 16 13 25 23 17 19 5 7 12 11 19 24 18 24 23 25 30 26 21 15 29 38 36 28 26 23 20 19 17 19 18 16
16 16 17 16 13 11 13 18 10 18 19 18 20 12 10 12 9 19 21 12 17 15 11 12 13 21 21 20 17 28 31 24 20 21 22 24 19 32 26 21 31 25 21 23 25 23 26 28 26 19 23 23 29 18 21 25 22 23 15 10 17 15 18 19 14 19 19 31 15 21 20 21 14 11 10 23 34 27 32 33 31 28 24 22 19 19 17 17
15 15 18 16 13 11 19 20 18 18 15 19 15 8 11 12 21 19 21 11 10 12 14 17 15 15 20 21 21 24 21 21 19 18 17 24 15 25 17 21 13 22 23 21 15 25 21 16 28 24 18 29 24 30 23 29 28 27 29 20 22 24 21 18 19 16 14 13 7 22 15 16 6 8 15 27 26 21 25 25 26 27 26 24 23 19 18 16
13 13 11 11 14 16 16 12 15 13 15 15 11 9 6 15 17 11 20 17 15 11 12 16 24 22 18 31 19 21 23 20 17 22 20 22 22 23 25 25 19 20 18 12 25 26 21 27 32 30 31 29 32 33 26 23 25 32 20 19 16 18 26 21 20 29 22 15 11 12 30 16 13 8 8 18 20 24 25 29 26 24 22 22 20 19 18 16
10 11 9 11 15 16 14 16 12 13 11 11 9 13 19 24 7 8 9 12 13 15 15 18 20 16 16 19 17 26 21 26 24 15 23 21 24 21 31 29 29 17 19 13 23 20 24 27 18 31 10 30 28 22 20 17 12 23 17 14 15 20 17 15 18 18 15 16 16 15 14 7 11 8 16 23 24 23 26 27 26 24 21 20 23 20 18 16
9 9 11 18 17 13 14 16 11 10 11 10 14 21 27 19 14 12 9 10 8 13 20 18 7 9 15 15 20 21 24 14 20 20 22 25 17 23 21 26 32 24 20 28 16 19 20 31 12 32 18 31 31 21 24 20 32 22 20 28 26 13 13 7 7 5 11 18 11 8 15 13 13 16 15 24 25 23 24 24 25 23 21 19 19 18 17 16
12 11 16 16 21 12 14 15 14 13 12 12 13 23 20 23 22 23 8 9 11 10 11 12 12 10 12 11 8 21 27 21 14 20 16 24 25 23 30 25 19 21 23 17 12 15 16 15 14 28 32 21 31 23 21 23 16 19 30 23 8 8 13 15 14 9 15 20 14 9 15 18 19 17 11 18 23 20 20 21 22 20 18 20 18 17 17 17
11 12 19 20 17 14 15 16 14 10 12 10 18 12 11 25 18 22 14 19 10 9 9 7 12 8 10 9 10 14 22 24 9 21 11 26 25 20 19 34 23 26 19 25 12 22 12 13 21 21 25 21 19 23 22 15 16 17 25 13 26 20 19 11 16 14 19 17 14 11 16 18 15 21 24 20 25 20 21 22 22 21 20 21 18 18 16 16
10 12 17 17 18 16 18 17 14 14 9 13 16 23 21 27 21 22 21 23 17 8 10 9 6 9 8 7 7 15 20 29 12 16 16 24 22 25 26 20 22 27 24 19 28 18 19 12 14 18 26 23 17 26 28 27 17 10 10 22 16 12 13 16 25 13 23 11 12 11 17 18 14 17 22 24 26 28 25 22 21 23 19 20 19 17 17 15
9 7 15 12 19 19 18 15 15 12 14 20 13 24 11 18 22 24 27 21 14 10 9 8 11 9 12 10 9 6 13 9 18 13 16 21 27 21 30 21 20 28 27 23 21 11 14 10 12 18 15 22 26 31 27 28 28 17 13 15 25 22 11 15 12 15 17 23 18 20 18 14 7 19 22 20 20 24 26 24 22 21 18 19 18 18 16 16
7 9 11 10 18 13 18 16 18 21 19 12 16 18 17 21 15 19 21 24 22 10 13 16 10 11 10 11 7 10 7 6 13 13 17 19 27 22 25 27 23 23 29 26 24 13 11 12 19 14 22 27 16 23 21 20 15 12 17 14 13 20 11 19 15 11 14 23 23 22 20 8 6 9 23 24 20 22 21 23 23 21 19 18 19 17 17 16
6 10 9 12 11 17 26 20 20 14 18 19 20 23 20 18 26 25 27 20 18 18 17 20 18 18 14 17 10 9 7 12 11 12 12 11 18 17 15 22 25 17 27 30 26 11 15 9 14 14 16 18 12 15 19 15 12 12 15 13 11 13 17 15 15 12 11 9 19 13 21 7 6 7 19 22 22 21 21 23 23 21 19 18 20 18 14 14
9 13 6 10 7 19 20 15 12 18 20 21 15 21 26 31 24 25 26 18 17 18 22 23 17 13 15 17 11 8 8 12 12 12 11 14 12 26 10 21 21 22 20 19 21 15 13 20 15 19 12 11 11 7 17 15 14 14 15 9 11 12 13 19 16 15 16 11 16 9 12 9 9 13 23 22 21 21 20 21 23 21 17 19 20 18 16 13
8 11 9 6 8 15 18 19 19 16 21 17 18 23 18 27 25 24 24 17 21 10 15 18 15 20 12 18 11 7 5 9 6 6 12 13 23 14 14 20 24 27 25 14 25 14 22 15 13 17 21 12 9 6 11 23 25 20 12 16 9 10 10 8 11 6 18 13 19 21 16 9 13 21 22 26 25 22 23 19 23 23 18 19 19 16 14 12
12 10 7 6 8 17 22 13 8 13 17 16 17 19 20 22 18 25 23 22 20 19 20 18 13 7 8 5 8 9 12 8 11 8 12 14 18 15 14 17 23 17 19 17 17 17 15 11 13 21 24 25 28 31 30 25 32 24 13 21 12 12 12 12 16 10 14 5 16 19 12 12 16 22 25 26 25 23 21 20 18 21 20 19 16 15 14 13
8 12 5 7 16 16 15 16 13 10 9 8 10 18 16 21 22 19 22 29 26 22 27 11 9 11 9 5 6 8 8 7 11 11 15 16 17 20 19 16 22 26 18 26 24 20 21 10 9 13 21 17 9 7 5 10 9 18 7 8 21 9 8 11 16 14 18 8 11 12 32 26 23 24 25 25 28 26 24 22 25 20 18 18 15 14 15 14
8 6 9 8 11 9 12 9 14 12 10 8 9 9 9 15 18 24 15 14 11 12 12 15 7 7 4 4 7 11 7 7 8 13 12 14 9 16 22 19 16 22 22 33 26 20 11 14 8 10 15 15 9 5 6 7 8 8 8 10 7 13 12 12 19 18 18 22 12 14 34 35 25 24 25 25 24 24 23 22 22 21 19 18 16 16 15 18
8 5 6 8 11 13 12 14 15 15 19 18 19 20 19 18 14 13 16 10 11 5 5 7 8 11 9 11 5 9 4 5 8 10 5 13 14 13 20 15 16 17 23 25 29 26 19 18 10 7 8 6 7 10 12 9 6 7 6 6 9 9 10 11 8 15 18 22 23 23 27 34 28 26 27 27 29 29 27 24 22 21 20 18 18 18 18 18
7 10 11 8 7 6 10 10 11 16 20 20 21 16 18 15 17 15 11 12 12 7 6 6 5 10 15 10 12 10 4 6 6 5 8 9 5 9 12 13 13 21 22 19 25 28 26 14 9 7 5 12 15 13 16 16 10 15 16 12 8 10 9 10 11 21 16 16 34 38 24 29 30 29 25 23 22 26 24 22 22 21 21 20 18 19 20 18
9 9 8 7 10 14 12 9 10 12 13 19 22 17 24 16 17 13 9 8 8 9 8 8 7 11 10 14 19 15 8 7 7 8 3 5 11 4 10 9 14 21 16 25 19 17 30 22 8 10 8 10 14 14 16 17 19 14 15 20 22 18 17 16 19 23 33 26 28 32 30 23 11 20 23 22 23 24 25 24 24 22 20 20 20 20 19 18
9 8 11 12 11 8 10 9 9 10 10 11 17 14 16 17 12 8 7 16 15 9 6 4 6 9 12 12 17 21 18 13 9 9 6 8 9 6 9 13 17 18 18 18 15 16 20 15 5 10 11 8 12 13 14 23 23 18 17 21 21 15 15 5 24 20 28 26 27 28 27 22 17 24 23 22 24 27 28 25 22 20 19 22 23 21 20 18
10 10 12 11 9 9 8 9 11 7 9 8 13 15 16 10 12 12 13 11 15 12 11 7 8 9 11 9 9 12 17 19 15 10 7 6 10 15 16 23 21 18 17 10 9 24 19 15 9 9 14 10 10 11 11 11 15 15 12 16 15 12 21 22 24 14 34 42 33 31 27 29 35 33 32 25 25 24 25 26 24 19 20 22 22 22 20 18
Wind_Speed
11 11 11 12 12 12 12 12 13 13 13 13 14 14 15 15 15 15 14 13 14 14 14 14 15 16 16 17 18 19 16 9 14 9 6 15 6 15 11 9 6 8 5 3 4 2 3 2 1 2 0 1 3 1 3 2 2 1 3 4 6 6 8 2 3 2 3 6 7 9 3 1 8 5 4 13 14 16 14 12 10 14 13 15 14 16 16 16
11 11 11 12 12 12 12 13 12 13 13 14 14 14 14 14 15 14 15 13 14 14 14 14 15 15 16 16 17 18 13 10 11 12 19 6 12 16 15 16 16 13 4 3 5 4 3 2 4 3 2 1 1 3 3 2 4 4 2 4 10 6 4 1 1 7 4 8 9 10 4 2 3 9 2 9 9 16 16 11 14 17 16 16 15 15 16 15
11 12 12 12 12 12 13 13 13 13 14 14 14 14 14 14 14 14 14 14 14 14 14 14 15 15 16 16 16 15 11 10 6 10 19 16 22 19 18 17 15 9 9 4 4 5 5 2 3 3 2 0 2 5 1 4 2 5 4 6 10 4 3 4 3 8 6 8 14 10 7 3 3 4 2 12 10 17 18 13 12 17 16 15 15 14 13 14
12 12 12 13 12 13 13 14 14 14 14 14 14 14 14 14 14 14 14 14 14 13 14 14 15 15 16 16 15 11 7 6 4 7 4 6 21 25 21 19 16 10 9 4 4 5 1 3 2 3 1 4 3 3 2 5 1 2 4 8 4 3 5 4 1 5 8 7 9 7 3 9 9 2 7 16 12 8 11 19 23 20 20 18 16 15 13 13
13 13 13 13 13 13 14 14 14 14 14 14 14 15 14 15 14 14 14 14 14 13 13 14 15 15 16 16 15 6 8 2 2 2 2 6 10 17 19 21 15 8 10 3 1 1 1 0 0 0 2 3 2 0 4 4 4 1 6 7 5 5 6 6 6 6 7 13 5 5 7 3 4 6 14 12 15 10 14 14 22 22 22 22 18 14 13 13
13 13 13 13 13 14 14 14 15 14 14 14 14 15 15 14 14 13 14 13 14 14 13 14 15 15 15 15 9 4 1 1 3 5 9 11 9 14 17 16 12 7 5 4 4 1 3 3 3 1 2 3 4 6 3 7 3 5 7 5 6 7 8 4 3 6 6 5 4 3 4 1 4 4 1 9 15 9 5 12 16 20 19 18 17 16 14 14
12 12 13 13 14 14 15 15 15 15 15 14 15 15 14 14 14 13 13 13 13 13 13 14 14 15 15 11 9 2 2 9 5 7 15 15 9 10 11 9 10 6 5 5 3 2 4 3 5 4 2 3 5 7 9 3 4 7 9 5 7 7 10 9 9 10 6 6 3 3 4 6 3 7 1 6 4 12 12 12 13 15 16 18 17 14 15 14
11 12 12 13 13 14 14 15 16 16 16 15 15 15 14 14 13 13 13 13 13 14 14 13 13 13 12 7 6 0 1 9 14 4 14 13 12 6 11 8 8 5 5 9 7 7 3 5 7 3 4 5 3 8 5 4 4 7 10 10 7 4 6 6 7 5 9 12 3 5 6 2 5 5 5 8 14 15 16 14 14 15 15 13 15 15 13 12
11 11 12 12 13 14 14 15 16 16 16 15 15 15 14 14 14 13 13 13 13 13 13 13 13 12 10 3 2 4 9 13 5 9 13 14 12 7 10 4 5 6 5 4 4 5 4 4 5 5 4 6 8 6 5 3 5 5 10 9 7 6 6 6 4 4 9 4 4 4 6 4 5 11 10 11 12 15 17 16 15 14 14 13 11 12 12 11
11 11 11 12 13 14 15 16 16 16 16 16 15 14 14 14 13 13 13 13 13 13 13 12 12 10 7 4 4 4 10 9 7 7 11 13 15 11 7 5 7 7 5 5 4 4 5 6 8 5 5 7 4 6 3 6 6 3 6 11 10 12 8 4 4 3 6 3 2 3 6 5 4 7 4 2 15 16 17 16 14 13 13 11 11 10 10 12
11 11 12 12 13 13 14 15 16 17 16 16 15 14 14 13 14 14 13 13 13 13 13 13 12 9 6 3 4 11 5 7 3 9 13 14 15 10 7 5 6 7 9 7 7 7 9 9 4 2 2 5 2 5 3 3 2 5 7 5 6 8 7 4 2 3 0 5 4 2 5 2 3 7 11 9 10 17 19 16 15 13 12 11 11 10 9 10
10 10 11 12 13 13 14 15 16 16 16 16 15 14 14 14 14 14 14 13 14 13 13 12 13 5 7 8 11 14 4 8 11 12 14 14 12 11 12 10 5 8 11 9 8 8 10 11 2 1 4 3 3 3 8 5 4 6 6 8 8 7 8 6 5 4 5 4 4 6 0 7 2 10 15 14 12 13 18 16 15 16 14 13 11 10 9 9
11 10 11 12 12 13 14 15 15 16 16 16 15 15 14 14 14 15 15 14 12 13 13 13 9 4 8 12 14 21 19 18 19 16 16 9 10 11 10 10 10 9 10 10 8 8 9 8 2 3 6 3 4 3 4 7 5 3 1 4 5 4 5 11 3 1 4 3 6 6 3 7 2 9 13 14 14 12 14 15 16 15 14 13 11 10 9 7
10 11 11 11 13 13 13 14 14 15 15 15 15 15 15 14 15 15 15 16 16 14 13 13 6 6 8 12 9 10 11 12 12 12 14 9 9 13 11 11 10 11 9 9 10 6 7 6 4 5 3 4 4 4 9 4 4 3 3 2 4 2 4 5 4 4 6 3 8 5 3 7 3 5 12 14 17 16 14 14 14 14 14 13 12 11 11 11
12 11 11 11 12 12 13 14 15 15 15 15 15 15 15 16 16 16 16 15 14 12 12 9 4 5 6 8 12 22 24 15 13 16 17 9 9 11 13 9 9 10 11 11 4 4 5 4 3 4 4 3 5 5 7 3 1 1 3 5 2 6 5 5 3 7 6 2 6 7 4 8 4 9 14 12 14 14 15 12 12 13 12 12 12 13 13 11
13 12 12 11 11 12 13 13 14 15 15 16 16 16 16 18 17 17 17 14 14 13 5 4 4 5 6 10 7 6 2 5 9 18 14 10 10 11 14 7 10 9 10 8 7 4 4 3 5 3 3 4 4 2 3 5 4 1 5 4 3 2 4 2 3 6 9 4 1 9 6 1 2 8 13 14 14 16 15 12 11 14 15 14 12 12 11 11
14 14 12 11 11 11 13 13 13 14 15 14 16 16 16 17 19 18 17 15 7 4 4 3 1 6 3 5 6 7 4 5 5 3 4 10 12 14 9 6 5 5 5 6 7 6 4 5 2 4 4 6 3 3 3 6 5 4 0 5 4 5 2 4 4 2 5 6 3 4 5 4 1 14 12 14 17 16 15 13 13 13 13 14 13 11 11 11
14 13 14 13 11 11 12 13 14 14 14 15 15 14 15 19 20 17 10 6 4 4 5 5 3 4 12 7 6 4 2 3 3 6 8 6 14 12 8 5 5 4 3 4 4 8 6 4 5 6 2 7 6 7 10 10 7 3 1 2 3 0 4 7 4 3 3 6 7 4 5 8 2 11 16 16 18 18 16 16 15 15 15 14 13 12 12 10
15 14 12 14 13 12 12 13 14 15 14 14 15 16 19 20 9 2 3 2 2 1 1 4 5 5 4 4 11 8 7 3 5 5 6 7 6 8 6 6 4 3 2 7 3 9 3 2 3 4 13 11 12 9 7 2 7 6 5 5 4 5 3 4 6 4 8 5 9 5 7 9 5 8 7 12 16 17 14 12 12 12 13 13 13 11 10 11
14 14 11 14 13 13 12 13 13 13 14 8 6 6 4 2 1 1 0 4 6 8 4 8 13 6 14 16 5 4 5 6 4 6 6 7 6 7 7 4 3 3 4 7 4 10 3 9 12 16 10 8 5 6 6 5 3 4 5 4 6 6 4 3 5 3 6 4 10 7 8 7 6 10 13 11 10 11 14 13 13 12 12 12 12 11 11 11
14 16 14 13 13 13 13 11 9 10 11 5 6 6 4 2 1 2 3 7 12 12 13 9 16 14 15 11 3 9 10 10 4 4 6 5 4 8 5 5 3 4 3 3 5 1 5 8 16 9 5 6 6 5 6 4 6 8 5 4 7 7 7 6 7 5 6 6 7 6 6 2 4 7 16 8 12 14 14 14 14 14 12 11 13 13 11 11
14 15 14 13 13 13 14 11 8 9 9 1 4 6 6 9 2 3 3 5 8 16 15 16 11 12 16 18 13 4 6 7 15 12 9 11 6 11 3 7 4 8 3 4 4 5 13 17 6 4 4 6 5 6 7 8 7 8 8 6 4 7 7 6 5 5 6 8 8 5 6 4 1 12 13 16 13 11 11 17 17 18 14 12 12 13 12 10
13 14 14 13 13 13 13 11 8 7 3 3 4 7 10 10 4 6 3 7 11 10 13 14 13 16 21 15 8 6 9 10 8 7 3 9 8 12 7 8 6 5 4 7 12 10 9 11 6 7 5 6 6 7 7 8 8 8 5 6 9 4 3 5 3 5 6 7 6 6 8 3 8 7 9 6 10 6 5 7 9 9 15 15 14 12 12 12
14 14 13 12 13 11 12 8 8 5 5 8 9 11 10 5 4 6 6 3 7 12 13 15 14 13 17 13 6 14 12 7 7 13 7 8 10 9 5 10 6 5 10 11 12 11 7 3 8 8 8 9 9 8 9 9 10 10 8 6 6 9 5 3 2 5 5 13 3 7 7 6 3 9 4 7 7 12 10 12 12 9 10 12 13 11 11 12
14 14 12 12 12 12 6 9 5 6 4 5 9 15 14 13 9 4 3 3 4 9 9 13 9 9 17 5 5 4 7 5 10 7 2 7 9 10 11 3 4 10 11 10 7 10 10 6 13 10 11 10 9 10 14 11 8 10 10 11 10 7 4 3 3 1 2 9 4 11 3 3 5 4 12 9 9 9 8 14 12 13 14 13 14 12 11 10
14 13 12 13 11 7 6 4 4 2 5 7 6 5 5 6 7 7 4 1 7 4 1 4 9 8 6 5 9 6 3 7 8 11 7 4 6 7 4 8 7 15 14 8 8 5 6 4 13 14 12 12 12 11 8 11 11 8 11 10 11 9 4 2 3 1 5 7 8 3 10 2 1 2 5 10 14 12 9 11 11 12 11 10 11 9 9 11
14 13 12 12 12 2 3 5 0 5 6 6 3 8 11 11 1 12 3 1 4 3 4 2 4 1 6 9 12 9 4 8 3 6 9 9 11 9 12 8 5 3 5 3 2 10 8 12 13 14 13 12 13 13 12 15 10 13 3 8 10 8 6 4 4 4 4 4 1 4 6 10 4 5 3 12 17 15 13 11 11 9 11 11 8 9 10 10
13 13 11 12 14 6 4 1 5 5 7 9 11 10 13 10 3 4 1 1 3 3 3 2 4 0 1 13 13 9 5 3 5 6 11 8 8 13 12 13 10 11 9 8 14 3 7 8 11 14 14 12 15 14 7 11 12 7 4 6 5 6 6 5 5 4 5 2 4 4 6 7 2 5 7 13 17 14 15 14 14 13 12 11 10 9 9 10
14 13 11 10 13 10 5 3 1 7 5 6 10 13 9 10 1 4 1 1 5 1 4 6 2 2 2 13 11 9 10 0 2 5 7 8 11 4 11 8 5 8 7 12 8 3 5 9 10 11 12 14 8 5 9 13 12 5 5 3 3 3 2 6 7 7 3 3 6 8 9 8 3 5 8 7 14 17 14 13 11 12 13 12 11 11 10 9
13 11 12 10 8 3 2 1 7 11 8 9 11 11 13 4 2 1 2 4 0 1 2 0 4 4 9 11 8 11 10 4 3 0 7 7 13 9 4 5 5 9 10 10 10 6 5 8 6 9 13 10 4 5 8 9 7 2 4 5 2 2 4 3 5 5 1 4 8 11 10 12 5 10 11 15 13 14 12 11 11 11 12 11 10 11 10 10
13 12 12 10 5 3 2 4 7 4 4 6 11 13 6 2 2 3 4 5 5 2 2 2 1 7 11 11 7 9 10 7 3 2 2 6 11 6 5 7 3 5 7 7 10 10 6 9 10 6 9 6 6 7 8 10 6 6 3 5 3 3 0 1 4 3 5 7 8 12 11 16 11 8 9 4 11 23 20 19 17 16 13 10 9 10 11 11
13 12 12 7 5 2 4 4 1 5 6 8 12 6 1 3 4 4 6 3 1 4 3 3 4 2 11 10 8 10 8 4 5 1 3 6 6 10 11 9 9 7 9 11 10 7 12 10 9 9 5 12 11 10 9 10 10 10 7 3 8 3 4 5 2 5 7 10 6 11 9 7 5 3 6 10 12 10 17 16 18 18 15 13 12 12 10 10
12 11 11 8 9 4 7 6 5 5 5 6 7 3 3 2 7 6 5 3 1 3 2 3 6 8 5 8 7 9 8 6 3 3 2 6 5 7 3 6 8 6 7 7 5 7 8 7 7 12 7 10 12 12 8 10 13 14 13 8 9 6 7 6 7 2 3 3 3 12 8 3 0 0 1 15 16 9 8 10 15 16 16 15 13 12 11 9
9 9 5 5 7 7 4 2 3 4 5 6 4 3 1 4 4 5 6 2 5 6 5 5 11 8 4 9 8 9 7 9 3 3 3 4 7 6 7 9 8 10 1 5 7 11 9 11 14 12 10 11 14 15 13 9 13 15 9 8 6 5 4 5 4 10 9 6 1 2 10 2 4 1 2 9 11 11 10 11 12 13 14 14 12 12 12 11
5 4 2 2 4 5 5 4 4 1 2 4 4 1 5 5 2 1 1 2 4 6 7 10 7 3 2 2 5 11 9 6 8 2 5 4 9 5 8 10 8 4 4 4 4 3 14 8 6 12 4 11 13 12 10 4 3 7 4 7 5 9 7 5 6 7 3 2 3 6 2 3 2 1 9 11 13 13 13 14 15 14 13 13 13 12 11 10
4 1 1 2 3 3 5 4 3 5 1 4 3 3 6 3 2 0 1 2 2 6 11 11 1 1 1 1 3 12 11 3 7 4 2 4 6 9 6 5 9 9 7 9 4 5 7 9 4 8 11 11 16 9 10 10 9 7 9 11 12 6 6 2 1 0 5 8 2 0 4 3 1 6 7 13 13 11 12 13 12 13 13 12 11 11 10 10
2 2 1 3 6 5 5 6 4 6 2 3 2 5 4 3 4 5 3 3 4 6 6 5 2 2 1 1 1 10 9 4 3 7 4 2 5 11 10 9 7 10 7 7 3 3 7 5 5 7 15 11 15 12 11 13 7 5 9 10 4 3 4 4 3 0 1 6 2 2 7 7 8 3 3 12 14 10 11 11 12 11 11 12 10 10 10 11
0 2 7 8 7 7 7 7 6 4 2 3 6 5 3 5 1 6 4 8 5 1 4 0 2 3 1 2 2 2 9 8 4 6 4 6 3 9 9 8 11 9 12 6 1 3 2 2 6 10 10 9 10 13 10 9 10 8 11 7 8 5 7 2 4 4 3 4 2 2 7 7 5 8 9 14 16 12 12 11 12 12 11 11 11 11 10 10
2 3 4 1 7 6 7 9 6 5 2 4 3 9 1 5 3 9 7 7 8 4 4 1 0 1 2 3 2 8 8 7 4 5 5 3 3 9 10 8 7 12 10 11 7 4 2 2 2 6 8 9 7 9 11 11 9 6 6 9 6 5 4 5 7 4 7 4 5 5 9 4 2 6 13 15 16 17 14 12 12 13 12 12 11 10 10 9
1 1 2 3 8 2 8 8 6 4 2 3 3 3 2 5 6 8 9 9 4 4 3 1 2 1 4 6 4 2 3 1 4 3 6 2 6 4 12 11 5 11 14 9 7 4 3 2 4 4 9 11 9 6 11 13 12 6 4 4 6 4 2 5 1 5 6 7 6 7 6 4 2 9 10 12 12 14 14 12 10 11 11 11 11 10 9 9
1 1 2 3 7 1 9 6 4 4 2 1 2 4 5 5 5 6 9 9 8 5 4 2 3 3 3 5 4 3 2 1 1 0 2 4 8 2 7 9 7 9 12 11 10 3 0 0 6 5 2 11 8 9 11 11 8 5 7 6 7 9 3 9 6 2 4 7 6 7 5 1 2 2 11 12 11 13 12 13 12 11 11 11 10 11 10 9
1 2 1 3 7 3 9 7 3 1 1 2 3 3 4 5 8 13 13 11 11 5 3 5 7 8 4 6 6 3 1 1 1 1 1 2 3 7 4 9 10 6 9 8 10 4 4 1 2 5 4 8 8 6 9 9 7 6 8 6 5 4 8 5 5 4 5 2 5 3 7 1 1 1 10 12 12 12 12 14 13 11 11 10 10 11 8 8
2 3 1 2 3 3 7 4 2 3 3 4 4 9 9 10 10 9 10 11 7 2 3 5 7 5 7 7 6 4 3 2 2 1 2 1 3 10 4 12 11 9 7 3 8 3 5 1 2 6 3 6 4 1 5 10 9 4 1 2 5 3 6 8 5 6 7 3 4 1 4 1 2 6 11 11 12 12 11 14 15 11 10 10 11 10 9 7
2 2 2 2 3 4 7 5 6 6 5 5 6 9 6 8 9 9 9 11 5 3 6 5 5 11 5 10 5 2 2 1 2 1 2 2 2 7 9 9 13 6 7 5 6 5 2 2 5 4 1 3 1 1 2 0 4 3 3 3 3 3 4 2 5 2 7 6 8 9 5 3 5 12 12 13 14 13 14 12 15 14 10 10 11 9 6 5
4 3 3 1 4 7 7 0 1 3 5 6 6 9 8 7 8 14 13 12 10 10 5 5 6 4 2 3 3 2 0 4 1 3 2 1 2 3 5 8 11 5 8 7 10 3 3 3 4 5 7 6 5 9 7 7 10 3 4 5 3 5 5 4 7 2 5 1 4 6 3 2 8 14 16 16 15 14 12 12 10 13 13 11 9 9 7 7
2 4 1 1 3 6 4 3 2 1 2 3 5 9 10 9 9 10 14 15 16 12 10 4 1 5 3 1 0 2 2 2 4 2 1 2 3 2 3 10 4 5 8 10 15 9 3 1 1 4 6 7 2 0 2 6 2 3 4 5 2 1 2 4 6 6 7 4 5 1 14 14 14 16 17 17 17 16 15 14 15 12 11 11 9 9 9 9
2 2 2 3 3 1 3 4 4 3 3 2 2 3 4 6 7 7 6 4 6 7 4 8 3 2 1 2 2 1 3 3 3 3 2 3 2 2 9 7 4 6 10 12 12 6 3 5 3 4 8 9 6 1 1 2 4 4 5 5 3 2 5 7 9 6 7 11 3 2 18 19 14 14 15 15 16 15 13 13 14 12 12 11 9 10 11 12
2 0 0 2 1 4 4 6 7 7 7 5 5 3 7 9 7 4 6 2 7 1 1 3 0 2 6 5 2 0 2 1 1 1 2 1 3 6 8 5 2 3 10 6 10 6 6 6 4 4 5 2 3 3 5 4 4 2 3 3 4 4 2 6 3 7 11 9 10 15 16 19 16 16 17 17 18 18 17 15 14 14 12 11 12 12 12 12
2 3 3 4 2 2 4 2 3 5 7 6 4 6 9 8 10 6 3 4 5 3 0 1 2 3 3 4 4 2 0 1 1 1 0 2 3 4 3 6 6 8 8 5 6 6 5 3 4 3 2 7 8 5 7 11 4 8 10 9 3 3 5 5 6 13 7 9 19 22 16 18 17 18 16 15 14 16 14 13 13 13 14 13 12 13 13 11
2 3 3 3 3 4 5 4 3 5 7 8 5 5 5 6 10 8 3 1 1 5 2 0 3 3 2 3 3 2 3 4 2 0 1 2 4 2 1 0 4 11 1 9 3 5 10 6 4 2 3 4 7 6 8 9 8 6 8 12 13 8 6 3 8 7 15 12 14 18 14 10 3 10 14 14 14 14 14 15 15 14 13 13 13 13 13 12
2 3 3 3 4 3 4 3 4 5 4 3 6 6 4 5 5 1 2 4 4 3 1 1 1 5 3 1 2 5 11 9 6 5 3 2 1 0 3 3 4 6 10 3 5 4 10 3 2 1 5 3 4 6 5 9 11 10 8 13 14 9 5 1 6 2 8 14 17 16 13 6 8 13 13 14 15 18 18 16 14 12 12 14 15 14 13 12
3 5 5 3 2 4 2 2 4 3 4 4 2 2 2 3 5 7 4 5 9 7 5 4 2 2 2 1 5 8 11 12 11 4 2 3 2 1 1 3 6 4 2 3 1 9 5 4 1 2 7 2 5 1 1 6 5 4 7 9 9 3 1 3 5 6 11 26 16 14 13 13 18 19 19 16 17 16 16 16 14 12 13 15 15 14 13 12
Wind_Direction
330 332 331 331 333 330 328 328 327 325 328 328 326 329 330 328 325 326 323 321 321 320 318 319 323 325 324 326 327 327 332 329 313 306 278 243 200 238 245 237 264 220 197 217 266 298 296 195 217 258 23 106 259 207 223 202 179 171 222 198 240 220 244 196 220 245 288 308 297 336 331 123 111 91 113 76 70 89 79 68 59 72 81 106 114 114 118 126
324 325 327 327 328 329 326 324 323 324 324 325 324 325 327 326 321 322 324 321 323 322 320 321 320 322 323 325 330 332 336 310 296 281 245 203 197 227 237 242 253 266 145 204 212 202 184 204 218 154 142 238 212 226 150 257 159 182 212 166 233 212 227 112 258 285 292 289 310 296 333 229 150 133 212 94 111 100 88 81 91 90 98 103 110 117 125 126
324 321 323 324 324 325 324 322 323 326 322 322 323 323 322 320 320 319 324 320 318 322 320 319 321 322 326 328 329 341 328 314 286 262 264 215 223 225 229 236 235 235 171 179 214 195 186 184 198 144 182 212 268 233 182 259 174 217 174 223 236 235 279 253 260 286 301 289 298 296 313 65 32 89 167 115 127 113 119 121 108 117 122 123 126 127 128 126
318 319 320 320 322 320 321 319 322 321 320 323 322 320 320 318 317 316 315 319 319 318 319 320 322 324 322 325 334 333 335 273 275 248 258 224 207 218 217 223 225 220 190 207 165 179 211 311 14 162 130 194 282 233 258 243 195 257 163 224 232 240 267 275 286 255 285 300 290 295 306 19 336 89 129 135 102 112 139 146 144 145 140 140 140 136 133 128
315 317 317 319 318 319 318 319 318 319 320 320 320 318 318 317 315 312 312 316 321 319 320 320 322 322 325 326 334 334 312 3 266 244 263 316 230 212 209 214 211 189 185 164 179 262 285 57 52 345 195 235 230 321 238 254 220 316 217 233 228 267 281 260 258 299 288 287 302 287 41 309 296 69 132 139 133 170 167 170 145 144 144 144 143 141 135 134
313 315 316 315 317 317 317 317 316 315 316 317 317 317 316 316 315 314 311 311 316 318 319 323 323 326 327 335 321 302 277 134 299 303 336 337 297 204 199 206 186 162 169 178 160 158 168 228 155 166 221 202 218 190 252 215 195 244 275 271 241 231 239 281 264 260 268 300 333 321 302 299 55 72 250 146 149 170 141 147 142 138 139 139 136 137 138 140
310 312 313 314 314 314 315 314 314 313 313 314 316 315 317 315 315 312 312 315 315 317 318 323 328 325 330 336 297 167 227 282 330 260 5 355 339 189 168 161 150 149 162 191 197 190 190 177 157 208 208 221 248 214 235 246 195 218 252 252 255 230 237 251 265 275 290 237 294 251 330 61 69 64 290 90 80 107 109 122 123 122 128 134 133 138 141 144
305 309 312 314 312 313 312 311 309 309 310 313 314 314 313 312 313 310 312 311 313 314 317 319 323 326 337 344 341 45 227 255 248 350 3 359 4 99 124 126 145 147 167 200 179 203 179 177 196 172 212 190 215 196 229 218 227 223 248 247 248 226 225 237 251 277 268 269 215 9 6 38 102 123 96 89 114 113 117 119 121 124 127 128 130 138 140 135
302 305 311 311 313 311 310 309 307 306 308 310 310 312 314 313 311 310 308 311 312 313 313 317 321 327 343 296 295 328 237 237 42 342 18 9 5 3 123 131 154 165 202 208 194 204 149 229 207 191 218 212 250 249 231 185 280 220 233 245 245 242 235 230 241 226 259 272 358 23 315 69 92 87 69 121 114 119 119 121 125 127 129 132 130 133 132 126
298 303 304 308 308 309 309 308 307 306 306 306 309 312 314 312 310 308 310 310 310 312 313 315 315 337 333 314 295 241 255 287 319 336 8 2 350 346 303 134 161 181 198 224 209 192 200 215 188 190 228 277 236 243 234 173 232 213 223 225 230 239 245 244 224 229 245 242 135 282 281 109 173 102 93 94 126 125 122 124 128 130 128 125 127 131 125 121
294 299 301 303 306 308 309 308 307 306 306 307 309 311 310 307 306 305 305 307 308 308 310 307 312 326 318 329 244 238 275 322 17 356 344 340 333 329 308 319 186 178 203 223 212 196 227 242 234 350 295 239 280 268 228 211 242 268 266 302 278 269 261 254 246 242 99 293 174 181 277 145 173 112 145 155 143 136 131 132 132 127 121 121 123 123 120 115
290 293 297 300 303 306 308 307 307 306 306 309 310 307 305 304 300 299 299 301 303 305 307 309 311 312 280 260 235 229 313 302 316 314 314 313 304 292 293 284 260 214 186 210 227 207 221 235 230 251 218 26 267 281 282 253 228 243 244 266 278 274 267 249 221 239 171 231 214 153 39 311 44 146 148 151 148 144 132 130 126 122 120 120 119 115 114 116
286 289 292 298 301 306 307 309 308 308 307 305 305 302 301 299 299 297 299 298 296 298 304 304 304 278 297 276 242 250 268 280 290 297 295 288 289 279 268 272 262 237 202 197 224 210 216 226 209 233 252 288 255 250 286 315 276 265 236 199 259 284 260 251 228 174 171 231 149 122 202 266 289 154 149 150 144 139 123 127 129 125 123 122 119 115 106 85
280 285 288 294 301 304 309 309 309 308 307 306 303 300 300 299 298 297 293 293 295 295 297 295 293 277 265 260 290 259 254 252 269 285 270 283 301 291 300 280 261 239 220 207 223 207 205 220 193 234 264 238 273 323 325 316 340 272 254 158 210 173 259 270 200 163 183 213 144 124 180 265 274 184 156 152 146 142 133 134 133 128 125 122 121 118 107 98
275 279 284 289 298 302 305 307 307 308 308 306 303 300 299 296 292 290 288 290 291 294 292 297 277 300 264 277 262 261 247 251 262 256 255 258 257 291 279 276 282 232 212 212 213 208 209 205 182 234 253 211 233 265 282 295 303 309 341 277 313 169 275 282 248 148 179 265 148 121 203 233 223 181 165 160 146 134 135 140 134 124 118 117 112 106 103 104
279 271 278 285 291 299 302 305 309 310 306 307 304 301 297 294 292 287 285 283 288 286 284 279 236 207 294 292 249 319 258 160 230 228 240 201 224 229 253 287 303 286 210 225 227 218 210 186 213 190 260 278 257 221 303 330 304 224 182 269 236 139 236 307 260 178 186 175 196 160 214 256 275 192 170 156 141 139 139 139 135 123 118 113 111 105 106 111
274 272 273 279 288 295 300 304 306 308 309 308 306 300 298 292 286 281 278 279 274 264 213 247 240 178 288 228 308 292 247 217 221 232 171 194 203 218 244 275 276 273 216 216 215 219 209 198 154 229 210 222 158 165 230 263 266 283 48 209 210 164 226 229 296 292 211 162 230 218 202 212 215 167 179 156 144 142 140 141 136 127 124 120 115 112 120 116
273 278 277 279 284 291 298 301 307 307 308 308 308 306 297 287 281 284 280 254 235 233 226 219 250 283 255 244 280 225 304 217 205 210 194 189 194 219 214 231 266 296 273 220 217 202 199 217 168 218 213 210 187 179 184 220 194 206 267 231 281 251 185 196 185 259 158 204 196 222 199 241 90 169 169 161 149 146 147 148 144 136 130 124 119 126 123 116
277 271 279 283 281 284 291 300 301 307 310 313 309 299 287 280 278 225 244 170 152 204 300 204 170 164 237 191 235 301 281 278 269 178 207 190 191 199 202 223 264 313 279 185 222 189 169 203 166 193 216 204 209 195 185 165 158 198 182 202 191 197 228 215 225 258 169 196 220 182 199 224 133 101 154 151 150 146 143 131 128 127 124 122 126 125 118 117
277 272 273 273 276 281 284 295 303 307 316 318 320 315 314 38 61 313 239 202 227 207 214 164 195 252 309 282 254 208 283 295 292 210 199 188 155 169 207 184 213 191 221 197 168 195 117 192 204 211 210 208 207 177 159 212 231 204 190 198 228 206 240 248 247 238 190 159 219 197 216 221 166 146 158 156 141 132 136 137 134 134 129 128 125 119 120 120
281 278 271 265 273 276 281 295 309 318 316 309 314 317 292 257 197 261 177 226 222 234 247 224 189 213 237 267 312 337 341 317 261 293 215 165 186 130 202 150 189 221 205 188 160 172 156 213 224 207 171 188 197 159 175 214 238 233 230 211 244 213 227 220 230 218 212 172 238 199 206 232 204 154 150 138 143 149 147 140 136 133 129 125 123 124 122 124
278 270 267 276 279 275 283 289 303 310 309 0 302 273 260 252 258 53 343 284 248 228 236 242 226 240 253 258 259 298 285 286 302 282 269 176 183 175 194 168 162 194 142 201 171 175 210 220 205 161 182 167 188 177 179 202 227 237 217 217 229 249 228 240 229 211 215 190 232 160 173 228 334 149 145 145 156 157 158 150 148 138 133 130 130 126 125 122
284 268 262 266 268 274 282 297 309 311 314 257 236 242 250 252 262 260 230 271 275 242 226 230 232 234 251 256 250 192 234 231 252 269 214 194 169 196 146 181 177 170 190 198 196 193 214 234 165 177 167 174 200 189 188 211 228 232 225 195 219 228 162 253 284 225 217 193 213 168 160 66 60 115 105 103 130 107 84 93 101 119 133 135 135 132 129 128
291 285 272 257 257 270 282 314 328 318 236 232 239 232 244 268 269 350 350 265 296 269 214 221 210 220 239 234 187 191 208 227 213 263 253 201 191 163 190 191 170 182 215 209 210 206 204 114 158 171 191 185 194 200 192 199 224 235 214 205 212 231 221 154 245 220 204 227 174 94 81 41 104 127 61 57 78 98 92 89 89 97 110 118 118 120 127 130
288 279 269 264 266 270 308 353 303 256 252 226 239 241 251 255 255 237 294 287 249 273 185 223 185 205 229 167 177 190 188 245 218 238 207 195 169 161 208 144 166 219 216 210 218 222 221 227 165 185 195 198 195 199 206 190 217 241 233 204 216 222 215 224 271 286 227 236 206 143 66 72 314 152 134 129 98 86 102 105 109 117 120 121 122 121 120 115
289 279 270 259 253 262 42 349 255 288 307 262 244 273 258 275 227 179 154 298 288 268 101 239 146 260 145 194 150 216 322 269 203 221 225 235 179 183 142 200 195 211 208 206 219 228 199 195 179 189 193 201 205 212 206 183 212 212 237 187 215 223 205 210 295 101 196 206 225 167 142 93 312 165 140 128 114 118 111 106 115 119 120 115 116 116 119 118
293 278 273 259 247 189 69 245 315 346 310 267 23 336 323 325 97 157 97 236 294 230 200 29 163 283 165 153 156 143 161 257 186 202 211 211 191 177 178 199 176 239 185 194 203 223 185 194 191 189 195 199 205 213 205 189 189 230 180 151 207 212 209 214 221 186 241 272 24 144 126 141 167 255 179 138 124 128 121 122 118 113 111 105 94 104 112 116
288 278 255 250 246 175 191 329 335 284 239 293 323 322 313 312 327 179 36 331 282 158 188 211 242 69 227 145 158 178 224 234 153 206 198 197 190 176 198 190 192 184 177 189 216 167 171 193 195 194 194 203 211 210 177 181 198 221 203 163 189 168 186 216 203 228 229 158 272 149 127 91 173 170 165 144 130 135 139 135 128 119 112 108 106 104 105 109
282 275 259 240 246 228 185 197 224 261 270 308 311 302 311 298 355 159 145 136 251 166 78 109 143 83 115 143 160 188 241 333 233 167 182 192 218 176 194 187 162 177 209 207 218 123 195 205 201 197 195 211 209 169 189 189 210 226 239 157 185 138 179 182 211 206 215 142 225 191 183 114 194 199 171 192 144 151 147 136 127 125 124 121 116 112 107 103
278 264 253 231 251 303 283 207 233 248 278 297 296 300 300 305 163 88 102 260 0 292 209 348 195 184 143 152 161 196 232 245 245 53 160 187 190 180 191 135 165 175 207 222 227 210 192 200 200 203 205 212 170 214 205 210 215 34 213 242 239 117 185 229 206 187 124 234 220 204 195 134 179 216 186 178 177 150 138 128 129 125 121 118 118 117 116 111
282 268 245 225 207 216 160 247 249 238 266 306 313 299 290 30 127 115 223 232 14 313 11 74 275 114 145 154 162 205 230 239 252 215 165 149 169 178 143 178 179 175 203 215 222 223 250 188 214 215 204 180 173 214 219 223 206 217 225 202 199 335 61 267 250 114 176 245 229 202 194 148 146 214 223 245 157 154 151 149 147 141 133 126 123 119 117 113
280 247 235 216 225 229 191 222 60 357 342 354 322 321 51 98 8 183 217 339 340 317 24 344 337 198 173 165 159 185 201 216 245 163 182 170 153 183 185 184 172 156 200 197 210 199 231 222 211 222 194 185 185 200 215 212 213 216 223 152 166 220 144 238 231 221 199 204 238 189 175 157 181 225 185 170 175 171 161 149 147 141 134 129 126 123 117 116
269 251 230 224 229 233 238 267 324 316 327 342 318 268 159 173 187 230 296 324 153 15 342 309 340 331 220 157 185 180 205 224 164 223 193 184 142 207 204 188 181 169 173 187 153 174 243 254 224 213 217 198 185 192 183 202 206 208 208 176 171 160 167 197 208 215 267 256 249 164 196 166 138 16 301 168 177 152 130 113 126 132 133 130 127 122 118 112
264 240 220 219 225 238 265 288 294 316 10 352 274 185 173 181 227 152 233 338 281 329 321 337 330 325 212 182 184 165 199 232 137 204 199 192 181 183 216 219 173 187 137 146 180 182 188 217 236 199 207 186 198 200 195 203 197 207 207 160 171 140 164 186 187 192 202 207 204 117 173 255 125 250 74 134 122 103 111 115 115 117 120 119 118 115 113 115
260 240 258 273 260 248 243 241 255 301 67 282 227 164 167 209 358 186 60 3 341 325 326 326 296 307 319 259 180 172 176 223 217 205 202 197 200 190 197 213 201 156 153 119 218 157 213 243 236 211 214 186 211 199 189 167 167 214 172 100 125 207 139 184 201 150 166 122 84 -0 59 347 116 21 90 101 102 102 113 118 120 119 119 120 120 120 123 122
34 344 256 254 235 238 220 226 220 78 12 251 183 162 213 181 196 202 195 278 356 337 320 314 302 70 244 341 220 186 187 171 195 184 269 213 196 199 204 207 204 188 168 192 193 188 182 222 209 205 221 193 210 182 198 170 202 192 159 196 209 160 112 108 88 19 94 86 4 309 114 93 105 44 89 110 107 109 110 115 114 117 120 120 120 124 125 123
18 333 276 229 235 218 205 208 164 117 202 259 156 228 211 287 247 312 332 16 336 345 313 351 340 38 344 266 201 188 188 185 173 160 231 213 195 200 194 216 192 189 207 148 264 192 149 240 248 199 209 222 204 192 194 197 156 142 192 210 97 145 124 135 198 247 99 147 162 226 164 166 155 173 158 118 113 124 117 127 124 124 127 122 123 122 123 120
191 249 262 253 236 201 197 188 156 128 243 200 214 220 163 245 176 270 312 320 290 249 292 242 295 59 292 1 316 207 177 168 202 154 232 190 275 191 186 206 201 201 194 187 115 265 144 268 225 217 217 204 214 188 202 216 191 191 210 133 153 166 196 294 118 192 148 133 151 212 183 180 203 144 154 140 135 141 140 139 134 136 134 123 121 119 116 113
225 244 276 330 328 194 169 166 153 138 204 198 211 218 305 248 313 291 297 285 281 310 285 228 258 306 316 323 297 332 175 185 184 179 171 211 215 193 195 187 208 203 198 183 209 248 358 193 288 217 208 186 198 180 200 201 212 215 91 156 164 130 167 153 196 168 108 151 137 141 173 220 199 156 167 155 152 150 144 147 144 141 137 129 127 125 121 116
347 318 263 338 327 229 151 157 165 176 237 208 151 237 334 313 272 269 253 242 280 214 224 310 173 306 295 238 297 292 329 45 160 225 179 199 202 221 200 181 190 193 202 181 207 155 258 150 267 258 211 176 211 188 204 193 190 193 150 196 181 196 219 135 88 139 150 156 162 138 193 237 240 158 168 157 151 144 144 139 135 133 133 127 127 126 124 121
229 335 272 355 333 135 124 130 168 201 210 286 306 274 283 267 303 280 277 263 244 222 258 190 144 216 282 344 314 326 311 358 79 39 217 199 179 182 224 191 177 195 191 200 218 159 333 190 215 288 180 194 212 201 201 194 183 152 158 194 190 162 124 172 247 23 99 117 156 151 194 137 242 218 156 151 148 140 140 131 132 131 130 127 125 122 125 128
303 280 261 20 328 138 139 162 204 111 225 210 199 196 258 265 264 267 275 278 254 226 176 274 237 234 240 242 260 299 287 301 218 104 273 167 234 201 218 206 186 186 167 194 206 178 168 164 146 251 222 208 215 201 191 165 146 171 156 221 170 143 119 102 143 248 56 23 97 143 117 190 95 270 148 145 143 138 138 129 128 126 122 123 122 123 128 132
212 253 43 64 5 169 146 180 168 183 221 242 272 276 268 276 277 289 288 279 285 228 248 206 219 203 230 228 244 235 232 245 178 192 226 238 238 224 260 195 202 190 126 166 185 222 160 146 160 253 271 287 253 202 151 151 139 132 155 111 111 177 171 156 169 182 115 143 87 25 72 215 321 127 128 130 126 126 129 128 126 120 120 122 123 126 129 112
265 268 303 226 171 180 168 182 191 197 225 274 255 265 255 260 265 274 264 272 262 227 231 261 236 198 199 227 259 251 4 41 266 186 300 244 252 234 227 219 201 199 158 197 165 207 180 249 142 205 299 279 314 2 35 187 127 139 186 199 177 142 164 165 109 96 106 209 167 130 179 199 165 132 126 128 128 130 132 131 129 126 127 131 129 125 113 106
277 232 219 296 157 171 192 206 89 165 215 234 244 256 257 250 237 239 251 263 248 227 247 238 217 185 188 212 179 277 251 167 280 287 211 245 258 300 279 217 191 201 182 174 150 127 137 201 108 171 181 174 176 182 201 185 191 197 160 167 180 170 156 109 173 134 123 217 109 111 92 111 130 132 133 134 132 129 130 128 123 127 135 136 132 127 118 105
324 319 107 96 137 174 278 309 330 202 218 248 268 258 249 257 261 250 243 246 237 231 201 248 139 167 145 178 54 236 290 197 174 269 339 312 305 300 34 352 295 205 184 161 150 149 181 172 135 173 173 196 194 192 216 132 96 167 173 158 202 148 159 112 117 123 160 177 73 265 142 137 140 143 144 146 142 141 139 140 136 135 135 133 132 127 120 109
306 267 344 101 98 181 242 250 263 232 228 219 216 268 239 252 290 290 238 292 220 194 194 210 205 161 200 99 199 321 230 282 269 260 261 281 237 262 324 306 262 239 180 154 153 102 118 223 221 196 232 189 207 13 336 108 149 176 143 175 98 116 140 135 153 202 158 102 20 116 144 134 158 145 140 140 138 135 137 138 135 137 138 137 132 122 111 106
295 68 0 274 284 178 191 260 238 253 251 273 268 289 275 287 290 282 317 247 325 328 96 326 328 171 178 174 137 117 321 292 331 247 300 306 334 342 350 326 304 228 173 178 152 122 133 203 259 150 240 7 2 57 63 58 50 93 120 156 166 120 131 145 207 154 153 147 165 170 162 143 162 156 153 153 149 146 145 142 138 137 132 131 131 121 115 113
251 297 269 287 302 28 231 271 245 237 257 230 257 252 273 273 277 262 254 326 330 290 346 209 284 269 212 146 120 174 277 26 324 299 6 320 33 356 353 332 338 317 171 176 167 139 90 272 258 167 95 18 7 14 79 88 76 53 37 33 37 136 176 145 160 165 168 151 148 159 168 158 158 155 150 144 136 129 129 129 131 135 138 135 127 119 117 114
340 6 333 350 295 270 252 244 249 257 255 245 252 222 241 259 266 280 279 106 336 295 303 148 252 274 339 139 123 153 227 206 181 239 261 100 340 53 255 166 291 334 322 159 147 148 132 246 267 210 76 5 0 22 72 94 97 80 31 32 32 20 62 99 120 80 77 77 126 129 124 111 61 120 123 125 126 124 128 138 142 140 139 131 123 123 119 116
215 197 222 298 295 244 228 213 230 234 243 243 223 265 250 268 278 350 230 191 207 231 264 228 328 354 19 89 194 226 232 245 256 252 233 135 156 200 47 273 8 325 334 185 133 159 138 221 10 25 83 330 337 36 82 93 86 75 34 15 7 7 80 10 124 213 122 133 125 115 114 123 128 123 118 126 134 137 141 143 141 141 132 127 127 127 123 121
292 220 209 223 279 269 287 324 287 255 234 220 228 270 278 282 296 299 314 252 224 239 252 269 278 346 321 273 244 236 242 235 238 208 161 136 153 123 165 268 290 262 272 287 349 143 136 115 28 87 85 295 270 273 169 94 56 20 355 341 333 323 156 105 43 34 144 134 127 144 184 155 149 145 138 145 142 143 143 145 137 129 130 132 133 129 124 122